[[{"header":{"parameterUnit":"m.s-1","parameterCategory":1,"la1":30.2991,"la2":30.254,"lo1":-89.0895,"lo2":-89.0444,"dy":0.0017,"dx":0.0017,"nx":28,"ny":28,"refTime":"2024-04-30T21:00:00:Z","depth":0,"parameterNumber":2,"parameterNumberName":"U-component_of_WINDS"},"data":[0,0,0,0,0,0,0,0,0,0,0,0,0,0,0,0,0,0,0,0,0,0,0,0,0,0,0,0,0,0,0,0,0,0,0,0,0,0,0,0,0,0,0,0,0,0,0,0,0,0,0,0,0,0,0,0,0,0,-0.3049,-0.3049,0,-0.3037,-0.3037,-0.3037,-0.3032,-0.3032,-0.3032,-0.3032,-0.3018,-0.3017,-0.3017,0,0,0,0,0,0,0,0,0,0,0,0,0,-0.3067,-0.3067,-0.305,-0.3049,-0.3049,-0.3037,-0.3037,-0.3037,-0.3032,-0.3032,-0.3032,-0.3032,-0.3018,-0.3017,-0.3017,0,0,0,0,0,0,0,0,0,0,0,0,0,-0.3058,-0.3067,-0.305,-0.3046,-0.3045,-0.3037,-0.3037,-0.3037,-0.3032,-0.3032,-0.3032,-0.3032,-0.3018,-0.3017,-0.3017,-0.3011,0,0,-0.3015,-0.3014,0,0,0,0,0,0,0,0,-0.3058,-0.3057,-0.3046,-0.3046,-0.3045,-0.3036,-0.3038,-0.3028,-0.3032,-0.3037,-0.3032,-0.3032,-0.3024,-0.3022,-0.302,-0.301,-0.301,-0.3015,-0.3014,-0.3014,-0.3014,0,0,0,0,0,0,0,-0.3059,-0.3057,-0.3045,-0.3046,-0.3045,-0.3044,-0.3042,-0.3036,-0.303,-0.3037,-0.3036,-0.3035,-0.3023,-0.3021,-0.302,-0.301,-0.3015,-0.3014,-0.3014,-0.3013,-0.2995,-0.2995,0,0,0,0,0,0,-0.306,-0.3058,-0.3045,-0.3044,-0.3052,-0.3043,-0.3042,-0.3039,-0.303,-0.3029,-0.3035,-0.3035,-0.3022,-0.302,-0.3019,-0.3012,-0.3014,-0.3013,-0.3013,-0.2995,-0.2995,-0.2995,0,0,0,0,0,0,-0.3061,-0.3059,-0.3045,-0.3051,-0.3049,-0.3043,-0.304,-0.3039,-0.3036,-0.3029,-0.3028,-0.3033,-0.3022,-0.302,-0.3013,-0.3012,-0.3013,-0.3012,-0.2995,-0.2995,-0.2995,-0.2999,0,0,0,0,0,0,-0.3061,-0.306,-0.3058,-0.3051,-0.3049,-0.3041,-0.304,-0.3039,-0.3035,-0.3035,-0.3027,-0.3026,-0.3022,-0.3014,-0.3013,-0.3011,-0.3012,-0.2995,-0.2995,-0.2995,-0.2999,-0.2999,-0.2999,0,0,0,0,0,-0.3062,-0.3059,-0.3058,-0.3056,-0.3047,-0.3041,-0.3039,-0.3035,-0.3035,-0.3033,-0.3029,-0.3026,-0.3012,-0.3014,-0.3012,-0.301,-0.2996,-0.2995,-0.2995,-0.2999,-0.2999,-0.2999,0,0,0,0,0,0,-0.3065,-0.3058,-0.3057,-0.3051,-0.3047,-0.304,-0.3037,-0.3035,-0.303,-0.303,-0.3024,-0.3022,-0.3016,-0.3012,-0.3014,-0.3004,-0.3004,-0.3003,-0.3007,-0.3007,-0.3007,-0.3008,-0.3011,0,0,0,0,0,-0.3065,-0.3061,-0.3055,-0.3051,-0.3049,-0.3043,-0.304,-0.3038,-0.3032,-0.303,-0.3025,-0.3019,-0.3014,-0.301,-0.3004,-0.2998,-0.2996,-0.2996,-0.2996,-0.2996,-0.2995,-0.2992,-0.2991,-0.2994,-0.2994,-0.2994,0,0,-0.3065,-0.3061,-0.3058,-0.3051,-0.3047,-0.3043,-0.3042,-0.3037,-0.3033,-0.3029,-0.3023,-0.3019,-0.3012,-0.3006,-0.3003,-0.3002,-0.2994,-0.2995,-0.2995,-0.2995,-0.2991,-0.2991,-0.2991,-0.2994,-0.2994,-0.2994,0,0,-0.3063,-0.3059,-0.3055,-0.3052,-0.3046,-0.3043,-0.3042,-0.3035,-0.3033,-0.3026,-0.3023,-0.3019,-0.3009,-0.3004,-0.3001,-0.2997,-0.2995,-0.2995,-0.2995,-0.2992,-0.2992,-0.2991,-0.299,-0.299,-0.2995,-0.2995,-0.2995,0,-0.3063,-0.3057,-0.3053,-0.3049,-0.3046,-0.3043,-0.3039,-0.3035,-0.3027,-0.3025,-0.3025,-0.3013,-0.3008,-0.3001,-0.3,-0.2997,-0.2996,-0.2996,-0.2992,-0.2992,-0.2991,-0.299,-0.299,-0.2995,-0.2995,-0.2995,-0.2995,0,-0.3058,-0.3054,-0.3051,-0.3045,-0.3042,-0.3037,-0.3033,-0.3029,-0.3027,-0.3023,-0.3017,-0.3011,-0.3005,-0.3003,-0.3,-0.2995,-0.2995,-0.2993,-0.2993,-0.2991,-0.299,-0.2989,-0.2995,-0.2995,-0.2995,-0.2995,0,0,-0.3057,-0.3049,-0.3048,-0.3046,-0.3039,-0.3035,-0.3031,-0.3025,-0.3023,-0.3017,-0.3013,-0.3005,-0.3004,-0.3,-0.2997,-0.2994,-0.2991,-0.2993,-0.2993,-0.2993,-0.2985,-0.2986,-0.2986,-0.299,-0.299,-0.299,-0.2986,0,-0.3054,-0.3047,-0.3043,-0.3037,-0.3033,-0.303,-0.3026,-0.3021,-0.3018,-0.3013,-0.3009,-0.3004,-0.3003,-0.3,-0.2997,-0.2992,-0.299,-0.2993,-0.2985,-0.2985,-0.2987,-0.2985,-0.2986,-0.2983,-0.2985,-0.2985,-0.2985,0,-0.3049,-0.3045,-0.3039,-0.3033,-0.3031,-0.3028,-0.3022,-0.3018,-0.3013,-0.3011,-0.3006,-0.3003,-0.2998,-0.2998,-0.299,-0.2992,-0.2989,-0.2986,-0.2986,-0.2985,-0.2985,-0.2984,-0.2982,-0.2982,-0.2984,-0.2984,-0.2984,0,-0.305,-0.3042,-0.3037,-0.3035,-0.3028,-0.3026,-0.3023,-0.3018,-0.3014,-0.3009,-0.3007,-0.3001,-0.2998,-0.2993,-0.2988,-0.2989,-0.2981,-0.2981,-0.2979,-0.2979,-0.2977,-0.2977,-0.2974,-0.2975,-0.2975,-0.2975,-0.2975,0,-0.3047,-0.3043,-0.3038,-0.3035,-0.303,-0.3026,-0.3022,-0.3018,-0.3014,-0.301,-0.3006,-0.3002,-0.2996,-0.2992,-0.2988,-0.2982,-0.298,-0.2978,-0.2977,-0.2978,-0.2979,-0.2976,-0.2976,-0.2975,-0.2975,-0.2975,-0.2975,0,-0.3046,-0.3042,-0.3037,-0.3031,-0.303,-0.3027,-0.3021,-0.3018,-0.3015,-0.301,-0.3008,-0.3002,-0.2997,-0.2992,-0.2984,-0.2981,-0.2975,-0.2974,-0.2977,-0.2977,-0.2975,-0.2975,-0.297,-0.297,-0.2971,-0.2971,-0.2971,0,-0.3044,-0.3042,-0.3036,-0.3033,-0.303,-0.3026,-0.3023,-0.3019,-0.3016,-0.3009,-0.3007,-0.3001,-0.2996,-0.2987,-0.2982,-0.2976,-0.2974,-0.2973,-0.2973,-0.2975,-0.2974,-0.2974,-0.2974,-0.2973,-0.2973,-0.2973,-0.2973,0,-0.3042,-0.304,-0.3036,-0.3032,-0.3028,-0.3024,-0.302,-0.3018,-0.3013,-0.3009,-0.3004,-0.3,-0.2993,-0.2987,-0.298,-0.2976,-0.2974,-0.2973,-0.2972,-0.2973,-0.2976,-0.2974,-0.2977,-0.2973,-0.2973,-0.2973,-0.2973,-0.2973,-0.3041,-0.3038,-0.3034,-0.3029,-0.3026,-0.3022,-0.3019,-0.3015,-0.3011,-0.3005,-0.3003,-0.2997,-0.2991,-0.2982,-0.2979,-0.2974,-0.2973,-0.2972,-0.2972,-0.2972,-0.2972,-0.2977,-0.2973,-0.2972,-0.2972,-0.2972,-0.2972,0,-0.3038,-0.3035,-0.3031,-0.3026,-0.3022,-0.3021,-0.3016,-0.3013,-0.3009,-0.3004,-0.3,-0.2993,-0.2988,-0.2982,-0.2976,-0.2973,-0.2972,-0.2972,-0.2972,-0.2971,-0.2973,-0.2974,-0.2973,-0.2973,-0.2973,-0.2973,-0.2973,-0.2973,-0.3036,-0.3032,-0.303,-0.3024,-0.302,-0.3016,-0.3013,-0.3009,-0.3006,-0.2999,-0.2995,-0.2991,-0.2986,-0.298,-0.2974,-0.2973,-0.2971,-0.2971,-0.2969,-0.2971,-0.2971,-0.2971,-0.2972,-0.2971,-0.2971,-0.2968,-0.2968,-0.2968]},{"header":{"parameterUnit":"m.s-1","parameterCategory":1,"la1":30.2991,"la2":30.254,"lo1":-89.0895,"lo2":-89.0444,"dy":0.0017,"dx":0.0017,"nx":28,"ny":28,"refTime":"2024-04-30T21:00:00:Z","depth":0,"parameterNumber":3,"parameterNumberName":"V-component_of_WINDS"},"data":[0,0,0,0,0,0,0,0,0,0,0,0,0,0,0,0,0,0,0,0,0,0,0,0,0,0,0,0,0,0,0,0,0,0,0,0,0,0,0,0,0,0,0,0,0,0,0,0,0,0,0,0,0,0,0,0,0,0,1.497,1.497,0,1.4964,1.4964,1.4964,1.493,1.4929,1.4928,1.4928,1.4922,1.4922,1.4923,0,0,0,0,0,0,0,0,0,0,0,0,0,1.495,1.495,1.497,1.497,1.497,1.4964,1.4964,1.4964,1.493,1.4929,1.4928,1.4927,1.4922,1.4922,1.4923,0,0,0,0,0,0,0,0,0,0,0,0,0,1.4953,1.495,1.497,1.4952,1.495,1.4964,1.4964,1.4964,1.493,1.4929,1.4928,1.4927,1.4921,1.4922,1.4923,1.4954,0,0,1.4926,1.4926,0,0,0,0,0,0,0,0,1.4953,1.4954,1.4955,1.4953,1.4952,1.4947,1.4955,1.4961,1.4931,1.4938,1.4928,1.4926,1.4931,1.4931,1.4933,1.4953,1.4953,1.4926,1.4927,1.4927,1.4927,0,0,0,0,0,0,0,1.4953,1.4954,1.4968,1.4955,1.4953,1.4944,1.4943,1.4956,1.4942,1.4937,1.4935,1.4935,1.493,1.4932,1.4932,1.4953,1.4926,1.4927,1.4927,1.4928,1.4997,1.4998,0,0,0,0,0,0,1.4955,1.4954,1.4968,1.4967,1.4949,1.4945,1.4944,1.4949,1.4941,1.4939,1.4936,1.4933,1.4931,1.4931,1.4932,1.4966,1.4927,1.4928,1.4928,1.4996,1.4997,1.4999,0,0,0,0,0,0,1.4955,1.4956,1.4968,1.496,1.4961,1.4947,1.4953,1.495,1.4952,1.494,1.4937,1.494,1.493,1.4931,1.4948,1.4966,1.4928,1.4929,1.4994,1.4996,1.4998,1.5036,0,0,0,0,0,0,1.4954,1.4957,1.4968,1.496,1.4961,1.4985,1.4954,1.4951,1.4954,1.495,1.4944,1.4942,1.4929,1.4947,1.4949,1.4966,1.493,1.4993,1.4995,1.4997,1.5033,1.5039,1.5044,0,0,0,0,0,1.4954,1.498,1.4969,1.4971,1.4976,1.4986,1.4986,1.4971,1.4955,1.4967,1.4959,1.4942,1.4963,1.4949,1.4951,1.4969,1.4991,1.4994,1.4997,1.503,1.5038,1.5044,0,0,0,0,0,0,1.499,1.4978,1.4967,1.4991,1.499,1.498,1.4994,1.498,1.4983,1.498,1.4961,1.496,1.498,1.4976,1.496,1.4997,1.4974,1.4978,1.4999,1.5006,1.5011,1.5011,1.4931,0,0,0,0,0,1.5001,1.5011,1.4999,1.5022,1.5022,1.5008,1.5012,1.5001,1.4999,1.4998,1.4991,1.499,1.4996,1.5001,1.5006,1.5032,1.503,1.5045,1.5051,1.5055,1.5058,1.5071,1.5077,1.5008,1.5008,1.5008,0,0,1.5024,1.5018,1.5026,1.5029,1.5027,1.5036,1.5008,1.502,1.5027,1.5,1.5016,1.5011,1.5008,1.5029,1.5039,1.5027,1.5077,1.5059,1.5063,1.5063,1.5074,1.5081,1.5087,1.501,1.501,1.5009,0,0,1.507,1.5067,1.5085,1.5083,1.508,1.507,1.5074,1.5067,1.5063,1.5078,1.5058,1.5065,1.5077,1.5075,1.5076,1.512,1.5104,1.5122,1.5151,1.5163,1.5169,1.5173,1.5189,1.5194,1.5126,1.5126,1.5126,0,1.5099,1.5113,1.5096,1.5109,1.511,1.5086,1.5103,1.5102,1.5101,1.5103,1.5089,1.5103,1.5099,1.5119,1.513,1.5132,1.5136,1.5123,1.5169,1.5174,1.5178,1.5192,1.5198,1.5128,1.5128,1.5127,1.5127,0,1.5147,1.5157,1.5172,1.5171,1.5174,1.5189,1.5174,1.518,1.5168,1.516,1.5175,1.517,1.5173,1.5177,1.5166,1.5196,1.5188,1.5173,1.5149,1.5187,1.52,1.5205,1.5131,1.513,1.513,1.5129,0,0,1.5217,1.5206,1.5211,1.521,1.5204,1.5211,1.5225,1.5228,1.5232,1.5232,1.5242,1.5252,1.5237,1.5238,1.5226,1.5237,1.5271,1.5219,1.5219,1.5229,1.5303,1.5315,1.5321,1.5261,1.5262,1.5262,1.5303,0,1.5261,1.5283,1.5268,1.5293,1.5301,1.5278,1.5289,1.5287,1.5279,1.5285,1.5276,1.5283,1.5263,1.5264,1.5273,1.5265,1.5286,1.5262,1.527,1.527,1.5271,1.5328,1.5341,1.538,1.5308,1.5309,1.531,0,1.5315,1.5316,1.5342,1.5333,1.5336,1.5347,1.5347,1.5353,1.535,1.5343,1.5344,1.5329,1.5341,1.5318,1.5334,1.5318,1.532,1.5316,1.5317,1.5317,1.5292,1.5329,1.5392,1.5397,1.5317,1.5317,1.5316,0,1.5362,1.537,1.5386,1.5386,1.5376,1.5384,1.5381,1.5376,1.5378,1.5379,1.538,1.5382,1.5383,1.5385,1.5371,1.5356,1.5389,1.5365,1.5383,1.5384,1.5391,1.5391,1.5454,1.5393,1.5393,1.5393,1.5393,0,1.5412,1.5428,1.5407,1.5417,1.5435,1.5417,1.5434,1.5428,1.5424,1.5432,1.5411,1.5419,1.54,1.5406,1.5395,1.5409,1.541,1.5405,1.5402,1.5407,1.5407,1.5408,1.5405,1.5395,1.5394,1.5394,1.5394,0,1.5468,1.5455,1.547,1.5459,1.5457,1.547,1.5461,1.5469,1.546,1.547,1.5472,1.5457,1.5463,1.5449,1.5452,1.5445,1.5466,1.5458,1.5467,1.5465,1.5484,1.5482,1.555,1.5558,1.5492,1.5493,1.5493,0,1.5501,1.5513,1.5503,1.5506,1.5504,1.551,1.5512,1.5495,1.5498,1.5494,1.5502,1.5506,1.5508,1.5518,1.5508,1.5511,1.5503,1.5526,1.5503,1.5507,1.5503,1.5502,1.5503,1.5531,1.5532,1.5533,1.5533,0,1.556,1.5552,1.5556,1.5557,1.556,1.556,1.5559,1.5563,1.5544,1.5549,1.5554,1.5556,1.5559,1.5563,1.5563,1.5559,1.5543,1.5541,1.5545,1.555,1.5554,1.5552,1.548,1.5539,1.5539,1.5538,1.5538,1.5538,1.5605,1.5614,1.5608,1.5613,1.561,1.5609,1.5616,1.5607,1.5611,1.5612,1.5602,1.5609,1.5604,1.5602,1.56,1.5605,1.5594,1.5601,1.5602,1.5604,1.5607,1.5554,1.5605,1.5605,1.5605,1.5604,1.5604,0,1.5662,1.5657,1.5662,1.566,1.5664,1.5648,1.5645,1.5649,1.5656,1.5652,1.5655,1.566,1.5664,1.5654,1.5655,1.5662,1.5654,1.5663,1.5662,1.5661,1.5617,1.5613,1.5668,1.5668,1.5668,1.5668,1.5668,1.5668,1.5693,1.5707,1.5699,1.5711,1.5706,1.5713,1.5713,1.5711,1.5708,1.5715,1.5718,1.5711,1.5705,1.5706,1.5708,1.5705,1.5707,1.5717,1.5712,1.5671,1.5664,1.5658,1.5654,1.5718,1.5718,1.5756,1.5756,1.5756]}]]